Location: Bannatyne
(13.0833°N, 59.5333°W)
Time: 01:08:47
(UTC+00:00)

deb Explorer IX - Pass Details

Date: 26 January 2020
Orbit: 549 x 1099 km, 38.8° (Epoch: 19 February)

Event Time Altitude Azimuth Distance (km) Brightness Sun altitude
Rises 00:24:06 0° 263° (W) 3,506 ? -35.5°
Reaches altitude 10° 00:27:00 10° 275° (W) 2,654 ? -36.2°
Enters shadow 00:31:25 26° 318° (NW) 1,865 ? -37.2°
Maximum altitude 00:32:20 27° 331° (NNW) 1,851 - -37.4°
Drops below altitude 10° 00:38:09 10° 26° (NNE) 2,895 - -38.8°
Sets 00:41:28 0° 38° (NE) 3,885 - -39.6°
